Temperature
21 19 19 20 20 20 20 19 19 19 20 20 19 18 18 18 17 17 17 18 18 20 21 22 23 23 23 23 23 23 23 22 22 21 21 20 20 20 19 19 19 18 18 18
19 20 20 20 20 20 19 19 19 19 19 20 18 17 17 17 16 16 16 16 16 18 20 22 23 23 23 24 24 24 23 23 22 22 21 21 20 20 19 19 19 18 18 18
20 20 20 20 20 19 19 18 19 19 18 18 18 17 16 16 16 16 16 15 15 16 18 21 22 23 23 24 24 24 23 23 22 22 21 20 20 20 19 19 19 18 18 18
20 19 19 19 19 19 17 18 18 18 17 16 17 16 16 14 14 15 15 15 15 15 17 19 21 22 22 23 23 23 22 22 22 21 20 20 20 20 19 19 18 18 18 17
19 18 18 18 18 18 18 17 17 17 16 15 15 15 14 13 13 14 15 15 14 15 16 18 19 20 21 21 21 21 21 20 20 20 20 19 19 19 19 18 18 18 17 17
17 18 18 18 18 18 17 16 15 13 14 15 16 15 14 13 13 14 14 14 14 14 16 17 18 19 19 20 20 20 19 19 19 19 19 18 18 18 18 18 18 17 17 17
15 17 17 17 16 16 15 14 14 14 13 14 15 14 14 14 14 14 14 14 14 14 15 16 16 17 17 17 18 18 18 18 18 18 18 18 18 18 18 17 17 17 17 17
14 15 16 16 15 15 15 14 14 14 14 14 15 14 14 14 14 14 14 14 14 14 14 15 15 16 16 16 17 17 17 17 17 17 18 18 18 18 18 17 17 17 17 16
14 14 15 16 15 15 14 13 13 13 13 13 14 14 14 14 13 13 13 13 13 13 14 14 15 15 16 16 16 16 16 17 17 17 18 18 18 18 17 17 17 17 16 16
15 14 14 14 15 14 13 12 11 12 12 13 13 13 12 12 12 12 13 13 13 13 14 14 15 15 16 16 16 16 16 17 17 18 18 18 18 17 17 17 17 16 16 16
14 13 12 13 12 12 12 11 11 10 11 12 13 13 12 11 12 12 12 12 12 12 13 14 14 15 15 16 16 16 17 17 17 17 18 18 18 17 17 17 16 16 16 16
12 10 11 12 12 12 12 11 10 10 11 11 12 12 12 11 11 12 12 12 12 12 13 14 14 15 15 16 16 17 17 17 17 17 17 17 17 17 17 17 16 16 16 16
12 10 10 11 11 11 11 11 11 11 11 11 11 11 12 11 11 11 11 11 11 12 13 13 14 14 15 16 16 17 17 17 17 17 17 17 17 17 17 17 16 16 16 16
12 10 10 10 10 10 10 11 11 11 11 11 11 11 11 11 11 11 11 11 11 12 12 13 13 14 15 15 16 17 17 17 17 17 17 17 17 17 17 17 16 16 16 16
11 10 10 10 11 11 10 10 11 11 11 11 11 11 10 10 10 10 10 11 11 11 12 12 13 13 14 15 15 16 16 17 17 17 17 17 16 16 16 16 16 16 16 16
10 10 10 10 11 11 10 10 10 10 10 11 11 10 10 10 10 11 10 10 11 11 12 13 13 13 14 14 15 15 16 16 16 16 16 16 16 16 16 16 16 16 16 16
9 10 10 9 10 11 10 9 10 10 10 9 9 9 10 10 10 10 11 10 11 12 12 13 13 13 13 14 14 14 14 15 15 15 15 15 15 15 15 15 15 15 15 15
10 8 7 9 10 10 10 10 10 10 10 10 10 10 10 9 10 12 11 11 12 12 13 13 13 13 13 13 13 13 13 14 14 14 14 14 14 14 14 14 14 14 15 14
8 8 8 8 9 10 10 11 10 9 10 10 9 9 10 10 12 12 12 12 12 13 13 13 13 13 13 13 13 13 13 13 13 13 13 13 13 13 13 13 13 13 13 13
8 7 7 8 9 9 10 10 10 9 10 10 9 9 9 9 9 10 12 13 13 14 14 14 14 14 13 13 13 13 12 12 12 12 12 12 12 12 12 12 12 12 12 12
9 7 7 8 8 9 10 10 10 9 10 10 10 10 10 9 9 11 12 13 13 14 14 14 14 14 14 13 13 13 12 12 12 12 12 12 12 12 11 11 11 12 12 12
9 8 7 7 8 9 11 10 9 9 11 11 11 11 10 11 12 12 13 13 14 14 14 14 14 14 14 14 13 13 12 12 12 12 11 11 11 11 11 11 11 11 12 12
8 8 7 7 8 10 11 11 11 11 11 11 11 11 11 11 12 12 13 13 14 14 15 15 15 14 14 14 14 13 13 12 12 12 11 11 11 11 11 11 11 11 11 11
8 8 7 8 8 10 11 11 11 11 11 11 11 11 11 11 12 12 13 13 14 14 15 15 15 15 15 14 14 14 13 13 12 12 11 11 11 11 11 11 11 11 11 11
8 7 7 8 9 10 11 11 11 11 11 11 11 11 11 12 12 12 13 13 14 14 15 15 15 15 15 15 14 14 13 13 12 12 12 11 11 11 11 11 10 10 10 10
8 8 8 8 10 10 11 12 11 11 11 11 11 11 11 11 12 12 13 13 14 14 15 15 15 15 15 15 15 14 14 13 13 12 12 11 11 11 11 10 10 10 10 10
Wind_Speed
4 4 1 4 4 3 3 3 5 5 2 2 4 5 7 8 9 10 10 10 10 11 10 10 11 14 15 15 16 16 15 13 11 8 7 6 6 5 5 5 8 10 11 11
6 3 4 2 1 2 2 3 5 5 2 1 4 4 4 7 8 9 11 12 13 14 13 11 10 11 16 18 18 17 16 14 12 10 7 4 3 3 3 3 4 8 9 9
1 4 3 2 1 1 3 5 5 5 3 3 4 5 4 5 6 10 12 12 13 15 16 14 10 10 12 15 16 15 14 12 10 8 5 4 4 3 2 3 4 5 7 8
3 5 5 5 4 2 5 5 4 2 1 3 2 4 5 7 9 14 17 17 17 18 17 13 10 6 7 9 9 10 10 10 9 9 7 5 5 5 5 3 3 4 5 6
5 6 7 6 6 4 4 4 1 0 3 1 1 2 6 6 10 14 17 17 17 17 16 14 11 5 2 2 6 8 10 9 8 7 6 4 3 3 2 2 3 4 4 5
6 5 6 5 5 4 3 4 5 5 4 1 3 4 4 5 9 14 15 16 17 17 16 15 13 10 9 9 9 11 12 9 6 5 3 5 6 5 4 4 3 3 2 3
9 7 8 6 8 8 8 6 4 5 3 4 1 3 1 4 8 10 14 16 16 14 13 13 13 11 10 11 10 10 11 8 4 3 4 5 6 6 5 4 4 3 2 2
7 7 8 8 5 5 5 3 2 3 4 3 2 2 2 3 8 9 10 12 14 14 12 11 10 9 8 8 9 8 7 5 3 3 4 4 5 4 3 4 3 3 3 2
5 5 5 6 6 5 5 4 1 2 2 2 2 1 1 10 14 15 16 16 16 14 13 11 8 7 7 7 6 6 4 2 2 3 3 4 3 3 3 3 3 3 2 2
2 4 6 6 7 8 4 2 4 3 1 2 2 2 6 14 18 18 18 17 16 15 13 10 7 5 5 5 5 5 2 2 2 3 2 3 3 3 3 3 3 3 2 2
3 2 7 6 6 7 7 6 4 2 1 1 1 2 6 10 13 15 16 16 15 14 12 9 7 6 5 5 4 3 2 1 3 3 4 4 4 4 4 3 2 2 2 2
3 4 3 4 3 4 4 4 3 2 3 1 0 2 7 11 11 12 15 16 15 14 11 8 7 8 7 6 4 2 2 1 3 4 5 5 4 5 4 3 1 2 2 2
4 5 5 8 7 8 6 7 5 2 1 1 1 2 8 11 14 15 16 16 15 15 13 11 10 9 8 6 5 4 2 1 3 4 5 4 4 3 3 2 1 1 2 2
5 5 4 1 3 5 6 10 10 4 2 2 3 4 11 17 17 18 17 17 15 14 14 14 12 11 10 9 8 7 5 3 4 4 5 5 3 2 2 2 1 1 1 2
5 5 4 4 3 5 10 13 13 10 7 5 5 6 11 15 14 14 14 15 15 16 15 14 12 10 10 11 10 9 8 6 5 5 6 5 4 3 3 3 2 1 2 3
4 5 3 1 1 5 10 15 13 10 8 8 8 7 12 13 11 12 14 16 15 14 13 11 11 10 10 10 9 9 9 8 7 8 7 6 5 5 5 4 4 3 3 3
3 4 3 1 4 2 7 10 9 6 8 7 7 8 14 13 14 12 12 14 13 13 11 11 10 9 8 8 8 9 9 9 9 9 8 7 6 6 6 6 6 5 4 4
4 4 3 2 3 4 3 3 3 3 4 6 6 9 11 12 12 7 6 11 13 12 10 9 8 7 7 7 8 8 9 9 9 9 9 8 7 7 7 7 6 6 4 4
3 5 4 3 3 1 2 2 2 2 3 4 7 11 12 14 7 5 8 12 10 9 7 6 5 5 5 7 7 7 8 8 8 8 8 8 7 7 7 7 7 5 5 5
7 5 5 4 3 2 4 3 1 1 3 4 6 8 10 10 7 8 14 14 12 10 7 5 5 4 5 6 6 7 7 7 7 7 6 7 7 7 7 7 6 5 5 5
4 5 4 3 2 5 5 2 2 2 4 6 5 6 6 4 4 10 14 11 9 8 7 6 5 4 4 5 5 6 6 6 5 5 6 7 7 7 7 7 6 7 7 7
4 3 3 3 2 5 5 4 4 6 4 4 5 5 6 7 9 9 10 10 11 9 7 6 5 5 5 3 3 5 5 5 3 4 6 7 7 7 7 8 8 8 8 8
6 7 5 7 6 5 5 6 5 4 3 4 4 6 6 7 7 8 9 10 9 9 8 6 5 6 5 3 1 3 4 3 2 4 4 5 6 6 7 8 8 8 8 7
3 4 4 3 6 5 5 4 4 5 6 6 6 7 5 6 8 9 8 9 9 8 7 6 5 5 5 3 2 2 2 1 2 3 3 3 4 5 6 6 7 7 7 7
7 7 4 4 5 3 5 6 6 5 5 5 5 4 5 6 7 6 7 8 8 7 7 6 5 6 6 5 3 2 1 2 2 2 2 2 3 3 4 5 5 5 5 6
6 8 8 8 8 7 7 7 5 5 4 4 4 5 6 5 6 6 7 7 7 8 7 7 6 6 6 5 4 3 2 3 2 1 1 1 1 1 2 2 3 4 5 7
Wind_Direction
27 55 311 250 212 202 187 216 260 265 283 324 286 301 335 3 20 7 354 341 329 310 289 275 250 229 220 212 207 204 199 192 178 176 180 186 201 200 203 204 203 202 201 200
32 332 275 263 184 168 196 245 267 284 331 302 303 314 1 30 29 13 3 351 338 328 322 303 273 240 221 215 208 203 199 191 185 187 179 167 160 184 203 204 201 203 199 195
257 296 340 51 24 288 251 225 245 262 346 26 348 335 7 359 7 9 6 354 345 339 328 317 298 256 228 217 208 199 193 183 175 164 144 118 108 105 151 197 207 203 198 197
12 352 27 32 2 327 279 272 246 240 18 302 25 295 321 340 346 1 359 355 349 343 337 329 319 291 243 219 198 183 167 153 147 147 161 169 179 197 204 193 195 193 193 197
358 11 36 22 334 333 284 333 9 163 166 304 339 205 306 349 356 348 346 347 347 345 344 347 348 345 360 104 122 122 111 109 118 132 151 177 204 213 162 151 179 190 195 199
2 5 41 354 332 359 350 24 45 47 82 250 242 176 322 1 342 332 337 341 343 345 349 355 4 25 47 65 85 97 99 91 94 109 146 207 207 191 168 174 180 186 192 209
353 7 3 360 2 5 30 45 8 349 6 247 271 134 85 350 337 329 330 333 337 343 350 357 7 22 44 59 70 80 87 88 91 137 194 209 197 187 183 176 181 175 178 207
13 343 359 6 11 335 353 76 160 247 249 285 350 169 156 8 338 332 330 332 338 346 350 355 7 20 35 54 63 68 73 90 125 176 191 181 175 171 166 168 166 174 186 201
10 309 338 1 8 31 10 4 312 224 271 261 282 53 352 357 354 350 349 348 343 343 347 353 5 24 39 48 60 65 76 107 160 170 152 143 145 144 150 149 145 153 164 165
49 309 322 330 16 24 44 2 36 35 294 265 302 37 357 347 344 343 346 344 339 340 347 352 358 16 36 55 51 47 58 125 142 128 116 117 121 129 131 125 125 133 131 117
63 57 330 12 25 348 1 15 12 327 239 229 254 55 11 343 336 340 342 344 342 342 346 352 3 18 26 42 46 17 345 92 105 105 100 97 96 104 106 105 120 133 129 133
65 90 349 328 337 12 46 20 3 339 312 306 193 48 5 346 345 352 351 351 351 351 357 7 17 29 29 29 25 354 310 100 116 115 99 97 99 100 100 101 122 144 151 155
76 69 15 352 357 10 13 355 340 291 260 344 40 13 358 357 4 5 1 358 357 0 16 27 29 30 26 21 17 14 353 105 116 114 109 98 87 88 91 94 116 165 174 174
95 78 95 51 325 339 354 2 6 17 35 31 38 14 359 1 360 359 358 358 1 11 24 30 31 26 22 22 22 21 22 55 106 116 106 88 77 75 66 43 21 338 252 221
74 85 81 95 79 51 35 19 22 38 32 43 32 23 358 347 344 346 353 359 8 13 20 22 23 21 23 27 29 32 38 45 63 68 67 63 49 39 40 30 16 347 293 271
61 105 115 106 347 41 35 21 18 25 22 24 28 18 341 334 341 354 2 4 5 5 8 12 17 21 24 23 24 31 35 37 47 54 50 43 36 27 20 11 9 11 349 316
62 103 104 5 310 4 21 2 9 24 25 17 13 336 329 338 344 347 353 359 358 357 359 4 6 7 11 15 21 28 27 33 43 43 37 31 27 23 11 7 12 10 357 340
109 95 102 80 56 51 295 293 341 357 27 13 346 334 336 329 313 308 352 356 351 349 350 350 352 356 1 10 18 23 27 31 35 33 28 21 19 14 8 8 2 355 352 343
89 121 102 94 92 102 309 348 355 346 337 346 339 338 341 336 333 347 355 353 339 331 330 329 336 342 355 6 8 25 26 25 28 24 19 13 13 11 10 6 354 352 351 347
48 72 99 100 113 209 247 276 237 180 311 314 331 329 336 355 17 332 330 334 330 332 330 330 333 344 358 356 6 26 18 19 15 7 8 10 13 17 14 5 359 354 354 351
25 35 74 115 158 252 243 254 127 140 262 299 305 304 318 330 268 284 308 318 320 323 325 332 338 340 336 344 11 18 8 360 346 359 15 18 15 18 18 14 14 11 14 18
167 145 165 144 171 246 219 153 174 214 240 269 278 283 293 291 290 300 313 324 331 334 333 334 335 327 325 343 12 7 348 332 355 26 29 25 22 24 24 23 22 22 23 26
188 189 187 190 212 234 204 202 217 195 230 259 264 283 294 298 306 315 318 326 330 331 330 330 326 322 323 333 356 346 327 340 47 54 39 29 29 30 29 31 27 25 25 26
241 156 154 228 257 242 227 230 241 220 231 257 269 281 285 290 301 312 316 323 329 331 326 326 326 324 315 310 297 285 313 53 86 65 38 29 34 33 33 34 30 30 25 23
214 170 177 230 253 235 240 229 233 244 256 274 289 282 285 294 302 306 311 315 319 321 317 317 310 297 290 288 277 270 223 147 105 72 40 29 37 41 38 38 31 25 24 20
194 173 176 212 207 184 216 219 215 231 259 281 297 308 313 306 301 306 308 307 311 315 316 316 309 297 289 279 263 252 199 172 153 108 22 9 16 38 40 26 20 21 22 25
Height
1499 1503 1507 1504 1503 1503 1506 1509 1512 1507 1501 1502 1503 1504 1502 1499 1498 1497 1496 1493 1491 1489 1487 1487 1488 1489 1491 1493 1495 1497 1500 1503 1505 1508 1510 1513 1515 1518 1520 1522 1524 1525 1527 1528
1505 1507 1502 1500 1501 1503 1506 1510 1511 1506 1501 1502 1505 1506 1503 1502 1501 1501 1498 1494 1490 1485 1482 1481 1481 1482 1483 1485 1487 1491 1494 1498 1501 1504 1507 1510 1513 1515 1518 1520 1522 1523 1524 1525
1507 1506 1501 1501 1504 1507 1508 1510 1509 1508 1505 1504 1507 1509 1507 1504 1502 1500 1497 1494 1489 1485 1479 1476 1475 1475 1476 1478 1480 1483 1487 1491 1496 1500 1504 1507 1509 1512 1515 1517 1519 1520 1521 1522
1507 1505 1504 1505 1508 1508 1513 1505 1505 1506 1512 1517 1513 1523 1511 1509 1505 1500 1497 1493 1489 1483 1478 1474 1471 1470 1470 1472 1474 1478 1482 1486 1491 1496 1500 1504 1507 1510 1512 1514 1515 1517 1518 1519
1511 1509 1510 1512 1511 1508 1509 1505 1505 1507 1512 1518 1517 1522 1519 1512 1510 1504 1500 1496 1490 1484 1478 1473 1469 1467 1468 1469 1471 1474 1478 1483 1487 1493 1497 1501 1504 1507 1509 1510 1512 1513 1514 1515
1514 1511 1512 1513 1510 1508 1508 1508 1510 1516 1519 1526 1517 1523 1524 1518 1515 1509 1502 1497 1492 1485 1479 1475 1471 1468 1467 1468 1470 1472 1476 1481 1486 1490 1495 1499 1503 1505 1506 1507 1509 1510 1511 1512
1524 1519 1516 1514 1514 1512 1513 1520 1529 1529 1533 1528 1516 1521 1524 1517 1514 1511 1505 1499 1493 1487 1481 1477 1474 1472 1470 1470 1472 1474 1477 1482 1486 1490 1494 1498 1502 1504 1505 1506 1507 1508 1509 1510
1536 1535 1524 1520 1521 1521 1521 1524 1535 1539 1536 1528 1517 1522 1521 1516 1514 1510 1505 1499 1493 1488 1483 1479 1477 1476 1475 1474 1475 1477 1479 1484 1487 1492 1495 1497 1500 1502 1503 1505 1505 1506 1507 1508
1538 1537 1526 1523 1522 1522 1526 1528 1528 1533 1530 1530 1525 1521 1517 1515 1512 1508 1503 1498 1493 1489 1484 1481 1479 1478 1477 1477 1477 1479 1482 1486 1490 1493 1496 1497 1499 1501 1502 1504 1504 1505 1506 1506
1534 1539 1532 1528 1525 1526 1528 1529 1535 1537 1538 1537 1529 1526 1529 1522 1517 1511 1505 1501 1495 1489 1485 1482 1480 1479 1478 1479 1479 1482 1486 1489 1491 1493 1495 1497 1498 1500 1502 1503 1504 1505 1505 1505
1534 1541 1540 1535 1537 1538 1535 1535 1537 1538 1537 1538 1536 1535 1529 1527 1522 1515 1509 1504 1497 1491 1487 1483 1481 1480 1480 1480 1482 1485 1487 1489 1491 1493 1495 1496 1498 1500 1502 1503 1504 1504 1504 1504
1538 1545 1548 1543 1539 1537 1537 1540 1541 1543 1540 1536 1537 1540 1530 1528 1523 1517 1511 1505 1499 1493 1488 1485 1483 1482 1483 1483 1484 1486 1488 1489 1491 1493 1495 1496 1498 1499 1500 1502 1503 1503 1503 1503
1538 1547 1556 1551 1548 1544 1543 1541 1539 1538 1539 1538 1538 1541 1530 1527 1522 1518 1513 1508 1501 1496 1491 1487 1486 1485 1485 1485 1485 1486 1488 1490 1491 1493 1494 1496 1496 1498 1499 1500 1501 1501 1502 1502
1537 1549 1557 1561 1558 1553 1549 1544 1539 1538 1540 1539 1539 1538 1534 1530 1526 1521 1517 1512 1506 1501 1496 1493 1491 1490 1489 1488 1487 1487 1488 1489 1490 1491 1493 1494 1495 1496 1497 1498 1499 1499 1500 1501
1541 1553 1555 1556 1554 1553 1552 1549 1544 1542 1542 1542 1542 1540 1540 1535 1532 1527 1522 1516 1510 1506 1502 1499 1497 1495 1493 1491 1490 1490 1489 1488 1489 1490 1491 1492 1493 1494 1494 1495 1496 1497 1498 1499
1545 1553 1556 1557 1555 1553 1554 1552 1549 1547 1547 1545 1543 1544 1541 1537 1533 1528 1524 1519 1515 1511 1508 1505 1503 1500 1497 1495 1494 1492 1490 1489 1489 1490 1490 1491 1491 1492 1492 1493 1493 1494 1495 1495
1550 1553 1558 1562 1558 1556 1561 1560 1557 1555 1554 1552 1552 1551 1543 1538 1534 1531 1528 1523 1520 1516 1513 1511 1508 1505 1502 1500 1498 1496 1494 1493 1492 1491 1490 1490 1490 1490 1490 1490 1491 1491 1491 1492
1550 1556 1562 1564 1561 1567 1567 1559 1559 1557 1556 1555 1553 1549 1545 1541 1536 1533 1531 1527 1523 1520 1518 1515 1513 1510 1508 1505 1503 1501 1499 1497 1495 1494 1492 1491 1491 1490 1489 1489 1489 1488 1488 1488
1549 1555 1562 1567 1567 1566 1562 1559 1559 1559 1557 1555 1553 1549 1545 1540 1535 1533 1532 1529 1526 1524 1521 1519 1517 1515 1513 1510 1508 1505 1503 1501 1498 1496 1495 1493 1492 1490 1489 1488 1487 1486 1486 1485
1553 1556 1563 1567 1566 1569 1565 1559 1558 1561 1558 1555 1552 1550 1546 1542 1541 1539 1533 1530 1528 1526 1524 1522 1520 1518 1516 1513 1511 1508 1506 1504 1502 1500 1498 1495 1493 1492 1490 1489 1487 1486 1485 1484
1560 1563 1566 1568 1567 1565 1559 1557 1558 1564 1562 1554 1552 1550 1548 1546 1546 1541 1535 1532 1529 1527 1525 1523 1522 1520 1518 1516 1514 1511 1509 1507 1505 1503 1501 1498 1496 1494 1492 1491 1489 1487 1486 1484
1560 1564 1566 1569 1568 1566 1554 1555 1558 1557 1553 1552 1551 1550 1548 1545 1542 1539 1536 1533 1530 1527 1526 1524 1523 1522 1520 1518 1516 1514 1511 1510 1507 1505 1503 1501 1499 1497 1495 1493 1491 1489 1487 1486
1557 1558 1559 1561 1560 1552 1551 1552 1552 1552 1552 1551 1550 1548 1547 1544 1542 1539 1536 1533 1530 1528 1526 1525 1524 1523 1522 1520 1518 1516 1514 1512 1510 1508 1506 1504 1502 1500 1498 1496 1494 1492 1489 1488
1552 1551 1554 1554 1551 1550 1550 1550 1551 1551 1550 1550 1549 1547 1546 1544 1541 1539 1536 1533 1531 1529 1527 1525 1524 1523 1522 1521 1520 1518 1516 1514 1512 1510 1508 1506 1505 1503 1501 1498 1496 1494 1491 1490
1546 1548 1550 1551 1548 1548 1548 1548 1549 1549 1549 1549 1548 1547 1545 1543 1541 1538 1536 1533 1531 1529 1527 1525 1524 1523 1522 1521 1520 1519 1517 1515 1513 1512 1510 1508 1507 1505 1503 1500 1498 1496 1494 1492
1538 1541 1545 1545 1541 1543 1544 1545 1547 1548 1548 1547 1546 1545 1544 1542 1540 1537 1535 1533 1530 1528 1526 1525 1523 1522 1522 1521 1520 1519 1518 1516 1514 1513 1511 1510 1508 1506 1504 1502 1500 1498 1496 1495